#timestamp,LO_Frequency,Hit,StdDev 
1504371615.1,286047000.0,N,1.3
1504371635.9,286047002.1,N,1.3
1504371655.7,286047000.2,N,1.3
1504371675.5,286047000.3,N,1.3
1504371695.4,286047000.0,N,1.3
1504371715.2,286047001.3,N,1.3
1504371735.1,286047001.6,N,1.3
1504371736.0,286047001.6,N,1.3
1504371755.8,286047000.1,N,1.3
1504371775.6,286047000.6,N,1.2
1504371795.5,286047000.0,N,1.2
1504371815.3,286047000.4,N,1.1
1504371835.2,286047002.1,N,1.1
1504371855.9,286046999.7,N,1.1
1504371875.7,286047002.4,N,1.2
1504371895.6,286047000.2,N,1.1
1504371915.4,286046999.7,N,1.1
1504371935.3,286047004.4,Y,0.0
1504371955.1,286047001.8,P,0.5
1504371956.0,286047001.8,P,0.4
1504371975.8,286047001.8,P,0.4
1504371995.7,286047003.7,Y,0.0
1504372015.5,286046999.8,P,0.9
1504372035.4,286047002.8,P,1.2
1504372055.2,286047000.6,N,1.1
1504372075.0,286047000.9,N,1.0
1504372075.9,286047000.9,N,0.9
1504372095.8,286046998.3,N,1.3
1504372115.6,286046998.5,N,1.4
1504372135.5,286047000.0,N,1.3
1504372155.3,286047000.8,N,1.3
1504372175.1,286047000.5,N,1.2
1504372195.9,286047000.3,N,1.2
1504372215.7,286047001.0,N,1.1
1504372235.6,286047000.9,N,1.1
1504372255.4,286047002.1,N,1.1
1504372275.2,286047002.1,N,1.2
1504372295.1,286046999.8,N,1.1
1504372296.0,286046999.8,N,1.1
1504372315.8,286047002.6,N,1.2
1504372335.7,286047002.5,N,1.2
1504372355.5,286047002.8,N,1.3
1504372375.3,286047002.7,N,1.3
1504372395.2,286047002.5,N,1.3
1504372415.0,286047002.5,N,1.3
1504372415.9,286047002.5,N,1.3
1504372435.8,286047002.3,N,1.3
1504372455.6,286047002.2,N,1.3
1504372475.4,286047002.4,N,1.3
1504372495.3,286047001.5,N,1.3
1504372515.1,286047001.6,N,1.2
1504372535.9,286047002.2,N,1.3
1504372555.7,286047002.6,N,1.2
1504372575.5,286047003.7,N,1.3
1504372595.4,286047001.8,N,1.3
1504372615.2,286047001.7,N,1.3
1504372635.1,286047001.4,N,1.3
1504372636.0,286047001.4,N,1.1
1504372655.8,286047001.4,N,1.0
1504372675.6,286047003.8,Y,0.0
1504372695.5,286047001.5,P,0.1
1504372715.3,286047001.9,P,0.2
1504372735.2,286047004.4,P,1.2
1504372755.9,286047002.2,N,1.1
1504372775.7,286047002.7,N,1.0
1504372795.6,286046999.7,N,1.3
1504372815.4,286047002.5,N,1.2
1504372835.2,286046999.8,N,1.4
1504372855.1,286047000.2,N,1.4
1504372856.0,286047000.2,N,1.4
1504372875.8,286046999.7,N,1.4
1504372895.7,286047000.2,N,1.4
1504372915.5,286046998.1,N,1.6
1504372935.3,286047001.1,N,1.5
1504372955.2,286047000.5,N,1.5
1504372975.0,286046998.4,N,1.6
1504372975.9,286046998.4,N,1.6
1504372995.8,286046998.2,N,1.7
1504373015.6,286046996.5,N,1.9
1504373035.4,286046998.4,N,1.9
1504373055.3,286046996.5,N,2.0
1504373075.1,286046999.0,N,2.0
1504373095.9,286046999.1,N,1.9
1504373115.7,286046997.0,N,2.0
1504373135.5,286046997.6,N,2.0
1504373155.4,286046997.1,N,2.0
1504373175.2,286046997.9,N,2.0
1504373195.0,286046996.7,N,2.1
1504373195.9,286046996.7,N,2.1
1504373215.8,286046997.8,N,2.1
1504373235.6,286046997.7,N,2.0
1504373255.5,286046997.5,N,2.0
1504373275.3,286046995.0,N,1.9
1504373295.1,286046997.9,N,1.8
1504373315.9,286046995.1,N,1.7
1504373335.7,286046997.6,N,1.7
1504373355.6,286046995.2,N,1.6
1504373375.4,286046994.9,Y,0.0
1504373395.2,286046999.2,P,0.6
1504373415.1,286046996.7,P,1.0
1504373416.0,286046996.7,P,1.0
1504373435.8,286046997.0,N,1.0
1504373455.7,286046997.1,Y,0.0
1504373475.5,286046999.0,P,0.7
1504373495.3,286046999.4,N,0.8
1504373515.2,286046996.6,P,1.1
1504373535.0,286046997.8,N,1.0
1504373535.9,286046997.8,N,0.9
1504373555.7,286046996.5,Y,0.0
1504373575.6,286047001.1,P,1.5
1504373595.4,286046999.2,N,1.3
1504373615.3,286046998.3,N,1.2
1504373635.1,286046998.2,N,1.1
1504373655.8,286046998.2,N,1.1
1504373675.7,286046998.2,N,1.0
1504373695.5,286047001.1,N,1.2
1504373715.4,286046998.9,N,1.2
1504373735.2,286046996.5,Y,0.0
1504373755.0,286046998.6,P,0.2
1504373755.9,286046998.6,P,0.2
1504373775.8,286046998.2,P,0.3
1504373795.6,286046998.6,Y,0.0
1504373815.5,286047000.2,P,0.8
1504373835.3,286047000.8,N,0.9
1504373855.1,286047000.7,N,0.9
1504373875.9,286047001.2,N,0.9
1504373895.7,286046998.5,N,1.1
1504373915.5,286047000.8,N,1.0
1504373935.4,286047000.9,N,1.0
1504373955.2,286047001.1,N,1.0
1504373975.1,286046998.2,N,1.1
1504373976.0,286046998.2,N,1.2
1504373995.8,286046998.8,N,1.2
1504374015.6,286046998.6,N,1.2
1504374035.5,286046999.0,N,1.2
1504374055.3,286046999.0,N,1.1
1504374075.2,286046999.0,N,1.1
1504374095.9,286046998.9,N,1.1
1504374115.7,286046998.5,N,1.1
1504374135.6,286046998.5,N,1.1
1504374155.4,286046998.1,N,1.1
1504374175.2,286046998.7,N,1.1
1504374195.1,286046998.3,N,1.1
1504374196.0,286046998.3,N,1.1
1504374215.8,286046999.3,N,1.0
1504374235.7,286046998.9,N,1.0
1504374255.5,286046999.4,N,1.0
1504374275.3,286046999.5,N,1.0
1504374295.2,286046996.5,Y,0.0
1504374315.0,286046999.1,P,0.1
1504374315.9,286046999.1,P,0.1
1504374335.8,286046999.0,P,0.1
1504374355.6,286047000.7,Y,0.0
1504374375.4,286047000.9,P,0.9
1504374395.3,286047000.0,N,0.7
1504374415.1,286047001.1,N,0.8
1504374435.9,286046998.2,N,1.1
1504374455.7,286046998.4,N,1.1
1504374475.5,286046998.1,N,1.2
1504374495.4,286047001.2,N,1.3
1504374515.2,286046998.7,N,1.2
1504374535.0,286046998.6,N,1.2
1504374535.9,286046998.6,N,1.2
1504374555.8,286047001.2,N,1.2
1504374575.6,286046998.5,N,1.2
1504374595.5,286046998.5,N,1.2
1504374615.3,286047000.9,N,1.2
1504374635.1,286046998.1,N,1.2
1504374655.9,286046999.0,N,1.2
1504374675.7,286046998.8,N,1.2
1504374695.6,286046998.5,N,1.1
1504374715.4,286047001.2,N,1.2
1504374735.2,286046998.8,N,1.2
1504374755.1,286046998.9,N,1.1
1504374756.0,286046998.9,N,1.1
1504374775.8,286046999.1,N,1.1
1504374795.6,286046999.2,N,1.1
1504374815.5,286046999.0,N,1.1
1504374835.3,286046996.9,N,1.1
1504374855.2,286046996.5,Y,0.0
1504374875.0,286046998.8,P,0.2
1504374875.9,286046998.8,P,0.2
1504374895.8,286046998.6,P,0.2
1504374915.6,286046998.7,Y,0.0
1504374935.4,286047000.7,P,0.9
1504374955.3,286047001.1,N,1.0
1504374975.1,286047001.1,N,0.9
1504374995.9,286047001.2,N,0.9
1504375015.7,286047001.0,N,0.8
1504375035.5,286047001.1,N,0.8
1504375055.4,286047000.5,N,0.7
1504375075.2,286047000.9,N,0.7
1504375095.0,286047001.0,N,0.7
1504375095.9,286047001.0,N,0.6
1504375115.8,286047000.0,N,0.6
1504375135.6,286046999.8,N,0.7
1504375155.5,286047002.4,Y,0.0
1504375175.3,286047002.3,P,0.8
1504375195.1,286047002.4,N,0.8
